GFSFLT1_prec_cthk_087.txt.gz
RH
26 25 23 22 23 23 29 36 36 46 56 50 45 46 46 50 52 43 28 24 32 36 45 50 62 73 70 77 70 83 94 98
26 29 32 26 24 25 29 38 39 44 50 48 48 49 49 50 51 42 27 23 32 40 49 56 61 70 71 73 77 91 97 98
23 31 29 27 25 29 31 39 41 43 49 52 51 48 48 50 47 40 27 26 37 53 57 64 72 72 73 75 86 93 99 97
18 29 29 28 29 29 34 42 47 45 52 54 48 50 50 51 46 37 22 28 44 55 62 71 72 78 80 77 85 93 97 97
16 28 30 29 31 33 42 48 51 48 54 49 46 50 50 50 46 31 26 34 50 57 69 80 83 84 86 85 87 96 96 96
23 29 30 35 40 41 42 47 47 48 49 45 50 53 55 52 44 33 30 39 48 56 68 75 84 91 91 91 96 98 95 96
36 40 41 45 43 41 44 42 43 46 49 47 55 58 58 57 41 32 35 44 50 58 69 79 90 89 93 95 98 97 99 97
46 39 47 39 46 46 40 41 41 48 48 49 57 60 62 59 42 33 38 44 51 56 68 77 88 95 95 96 97 99 98 96
60 53 43 40 41 55 44 48 48 50 51 54 59 61 67 62 45 39 40 45 50 56 63 74 87 96 98 98 99 99 98 98
63 58 54 49 51 51 53 51 57 55 56 56 60 65 70 64 48 42 40 44 49 55 62 74 84 96 98 99 98 97 99 98
69 69 71 70 62 79 76 67 63 60 58 60 61 65 75 61 54 46 42 44 49 54 61 72 81 95 97 99 99 98 98 97
70 78 83 81 74 90 92 90 86 67 59 62 63 69 74 67 57 47 45 46 49 53 58 66 75 96 98 98 98 98 99 98
73 80 84 84 83 84 90 88 94 64 62 70 70 74 79 73 61 48 49 50 48 49 54 60 66 92 98 98 98 98 97 98
77 74 79 83 83 83 82 87 89 86 82 77 76 83 82 76 68 57 52 52 52 49 53 58 63 72 96 98 98 98 97 98
85 80 76 73 75 81 83 83 88 90 82 81 81 85 84 80 77 69 64 54 52 52 53 56 59 63 75 96 98 99 98 98
89 90 85 81 76 83 86 85 87 88 87 87 89 86 86 84 83 77 74 64 54 53 56 58 60 63 67 72 88 96 98 98
89 91 91 87 79 79 86 89 90 89 89 92 91 89 88 84 83 82 77 75 70 62 62 62 63 65 67 67 70 71 70 70
89 92 94 95 87 80 85 87 91 92 92 93 93 92 92 92 91 86 83 80 78 76 71 69 70 70 71 71 70 69 66 69
90 91 91 92 97 88 83 89 94 94 95 97 96 94 95 94 93 87 86 84 82 83 84 78 76 76 79 81 80 77 77 79

GFSFLT1_prec_cthk_090.txt.gz
RH
33 33 33 27 18 21 18 23 25 28 51 60 72 54 44 46 43 44 47 45 38 26 25 28 37 47 60 67 80 85 82 83
38 37 33 31 26 22 21 26 29 31 54 63 74 62 52 48 48 48 50 47 36 26 26 30 37 47 63 79 79 79 81 79
37 33 31 33 30 27 28 26 30 34 49 57 57 60 55 50 45 51 52 47 36 26 28 39 48 58 64 72 76 73 75 84
29 29 24 28 32 35 34 30 29 33 44 58 58 63 60 50 48 52 54 47 32 27 33 49 58 64 72 83 76 78 79 89
34 36 27 25 36 36 31 30 29 35 43 60 56 55 54 48 50 52 53 42 32 29 41 55 62 72 81 85 80 81 77 87
52 44 30 30 40 34 32 29 32 36 49 60 58 59 53 52 54 57 51 36 29 33 42 52 58 68 78 87 85 82 80 88
64 56 39 32 41 39 40 38 36 46 61 59 57 56 51 52 56 57 50 36 31 36 43 52 66 73 82 84 89 92 86 96
72 62 45 38 46 47 50 55 51 64 64 57 54 54 51 53 58 56 47 35 32 41 49 56 67 73 80 92 91 93 92 97
77 71 54 49 47 49 54 76 68 60 55 52 57 55 55 57 57 58 46 35 40 45 51 56 63 70 83 95 97 96 98 97
84 78 65 58 60 68 63 66 73 61 54 55 58 56 54 59 61 62 52 41 44 47 51 56 63 74 86 97 99 99 97 99
82 78 75 72 70 68 64 65 74 69 64 64 59 51 53 60 62 67 55 44 47 47 50 56 62 71 85 97 98 98 99 98
78 75 78 78 73 66 67 71 84 86 86 76 63 55 57 62 69 69 59 47 51 50 50 54 62 65 84 97 98 98 99 98
76 74 84 84 84 82 82 86 86 96 92 91 73 63 62 67 73 72 61 51 54 54 53 52 58 64 82 99 99 99 98 99
78 75 75 84 94 99 96 95 95 90 89 97 79 70 72 75 78 78 75 60 58 56 55 54 54 64 72 96 98 97 98 98
81 80 79 79 92 98 94 99 97 92 97 89 76 72 79 79 84 85 80 69 62 57 56 56 55 61 69 80 98 96 98 98
82 84 84 81 82 88 92 90 95 91 90 89 95 90 85 87 87 89 86 78 71 64 57 59 58 61 64 73 86 98 98 97
82 85 87 86 80 77 79 81 87 90 93 93 96 96 94 90 89 88 85 84 78 75 69 62 64 65 67 70 73 78 96 98
84 85 84 86 89 82 79 79 86 94 93 97 93 95 96 97 93 92 90 87 83 81 78 74 70 71 72 74 72 74 70 73
82 84 87 86 85 89 88 83 89 94 99 95 97 93 93 94 93 91 90 89 85 85 83 81 79 81 79 78 79 78 76 72

GFSFLT1_prec_cthk_093.txt.gz
RH
30 32 33 35 39 41 39 37 36 37 36 42 37 62 71 58 43 45 47 47 46 44 41 31 28 33 37 42 56 64 75 77
34 36 35 36 34 34 40 38 25 26 34 32 36 42 62 70 55 51 50 51 49 46 44 32 26 31 37 43 56 64 74 86
34 36 35 40 38 32 34 34 27 25 33 27 33 43 67 80 74 60 53 53 50 49 45 31 29 33 42 50 54 69 82 87
38 40 38 41 41 36 38 42 35 25 24 30 40 57 73 87 79 61 56 53 52 51 41 31 34 41 50 54 61 71 77 86
48 52 44 42 40 34 35 39 40 31 29 34 43 56 68 67 67 63 60 52 52 55 38 33 37 50 58 63 68 74 80 78
57 56 53 44 40 32 27 38 41 40 37 37 50 58 69 72 77 68 53 53 54 56 35 33 41 54 61 66 75 82 87 87
67 70 61 54 46 39 27 36 43 45 41 42 50 56 67 70 74 62 56 55 57 48 33 33 43 50 61 69 75 79 86 85
78 77 74 68 57 46 38 41 45 44 46 52 53 61 69 72 69 59 56 56 57 39 30 37 44 49 59 71 74 83 88 86
90 87 81 74 59 47 46 55 54 52 56 60 64 71 73 66 63 54 57 57 54 36 34 39 46 57 62 68 76 84 90 91
94 95 85 75 64 56 57 60 57 63 57 66 81 76 64 65 57 60 60 58 54 39 40 43 50 55 63 71 83 88 96 98
96 90 88 83 76 60 60 67 68 69 65 77 85 72 66 65 59 58 61 62 54 43 42 45 50 55 63 71 81 94 97 97
88 89 89 90 84 74 69 68 71 78 76 83 86 77 75 68 62 63 64 64 56 46 44 46 49 54 62 67 85 98 99 99
92 87 85 91 91 86 81 77 81 87 87 91 92 85 80 75 67 69 67 66 57 47 45 51 51 52 59 65 86 97 98 98
93 90 87 85 88 93 92 88 87 90 92 93 95 93 90 71 65 68 69 73 58 48 46 54 55 55 61 67 83 98 99 98
86 91 88 85 85 92 96 94 92 92 95 92 94 96 95 75 69 71 75 73 67 54 50 53 56 56 62 65 74 96 98 98
86 89 89 87 85 84 86 91 96 92 95 95 97 98 98 78 76 77 79 78 72 67 59 55 56 58 62 66 74 87 96 98
86 89 89 88 91 88 86 90 91 95 95 95 97 98 96 84 79 79 84 82 78 70 64 65 59 57 64 67 70 74 88 97
82 86 87 88 89 92 89 83 82 86 87 96 95 94 98 87 83 85 86 87 86 83 76 70 73 67 66 69 73 76 75 79
75 80 83 87 86 88 92 91 85 82 83 98 83 97 99 95 97 93 91 91 92 90 87 79 77 77 78 79 79 79 82 82

GFSFLT1_prec_cthk_096.txt.gz
RH
16 19 21 23 26 31 36 42 39 37 40 52 54 58 57 56 69 58 42 44 46 47 47 47 46 39 33 37 43 47 49 61
26 23 22 24 29 34 36 38 38 41 40 47 52 54 51 50 56 66 49 50 54 51 52 50 49 38 32 37 42 42 55 62
36 35 29 27 31 34 37 38 39 37 40 42 51 50 50 48 53 67 73 58 58 56 55 52 50 37 36 35 40 46 54 64
40 43 42 35 34 35 37 38 40 39 37 36 41 45 43 48 52 61 88 82 67 61 59 53 51 40 35 33 41 54 61 66
46 52 52 45 39 35 37 38 43 42 44 39 37 33 40 39 44 64 92 94 68 62 61 55 51 38 33 34 51 60 64 69
57 67 66 50 48 47 40 43 44 44 40 46 44 35 36 34 57 65 77 81 69 67 62 54 51 38 34 39 54 64 70 77
74 81 76 60 56 54 48 48 42 40 42 50 50 41 37 45 58 67 76 68 76 67 61 56 51 37 34 41 55 65 72 79
79 83 78 67 66 60 54 49 43 40 43 53 52 49 44 54 58 73 73 71 68 60 58 58 45 33 36 42 54 64 72 76
84 87 89 78 76 69 63 54 46 44 49 55 59 55 53 62 69 74 75 67 61 55 57 59 41 35 40 49 52 61 70 74
87 90 91 89 84 76 71 59 51 54 58 59 57 58 62 63 67 85 81 63 57 54 58 55 43 41 45 48 56 62 68 78
88 92 97 95 89 81 78 66 58 63 72 72 66 67 69 66 75 91 75 63 55 56 60 55 46 43 47 52 58 64 68 77
88 89 94 95 91 87 76 70 69 77 80 79 75 73 72 76 86 79 77 63 58 60 65 59 49 49 48 52 58 63 69 75
88 85 89 90 91 89 84 77 81 81 85 82 75 69 82 77 91 90 81 62 64 67 70 62 50 52 52 53 53 61 68 89
82 84 87 86 88 92 92 89 90 92 88 87 84 81 84 85 93 88 78 68 70 72 72 64 54 53 49 52 53 61 73 96
81 82 89 88 87 94 91 96 96 95 95 93 94 95 97 97 98 91 80 74 74 73 76 64 56 52 49 54 55 59 78 95
85 82 89 93 92 91 90 91 96 98 92 88 95 96 94 99 97 92 83 77 77 77 77 65 57 52 50 53 58 66 78 95
87 82 87 91 94 93 89 87 84 92 93 92 96 98 98 98 98 93 78 80 81 81 81 74 63 58 56 55 60 68 78 87
82 79 81 89 92 92 93 89 86 85 92 92 97 98 97 97 94 99 86 85 86 83 82 81 69 63 61 60 60 67 72 75
77 75 77 82 89 92 90 91 89 86 87 95 90 97 97 97 98 97 95 88 87 85 86 85 83 79 73 74 75 73 72 79

GFSFLT1_prec_cthk_099.txt.gz
RH
16 17 17 17 17 18 19 21 22 25 28 32 35 43 58 63 54 57 60 59 53 50 43 45 43 42 42 39 38 39 45 55
21 19 19 19 20 19 18 19 24 26 26 30 38 38 49 55 54 57 61 63 63 54 45 49 46 44 45 44 38 40 43 53
22 22 21 22 24 28 27 21 24 27 30 31 32 37 44 56 59 61 63 61 67 60 52 53 51 48 49 48 36 38 44 51
27 27 30 32 30 33 36 30 27 31 30 42 45 46 47 57 63 58 59 63 73 75 62 65 59 53 50 50 38 38 44 47
34 38 40 44 44 48 44 40 33 33 36 43 48 49 47 43 50 52 59 63 69 82 83 81 70 60 56 52 38 39 48 52
36 40 47 53 58 59 58 46 41 34 37 39 50 52 49 49 46 49 50 58 62 65 64 98 83 68 60 50 40 41 45 57
40 45 55 65 73 69 61 52 48 42 41 40 53 58 60 52 47 43 50 58 59 65 70 76 82 70 61 48 41 44 49 60
46 53 67 80 84 74 66 62 52 50 50 53 59 60 65 57 52 46 51 51 58 74 74 80 74 68 59 50 40 44 50 60
52 68 79 84 89 81 78 72 62 57 56 57 55 60 67 62 55 53 53 57 72 78 77 76 76 64 62 50 39 50 50 59
61 77 83 88 94 90 87 78 71 60 57 57 55 60 66 66 63 61 63 64 71 73 80 78 73 66 63 46 43 48 54 61
71 78 84 88 98 98 93 84 76 64 60 62 65 66 68 71 70 66 66 81 86 93 87 78 68 66 60 46 44 51 51 56
70 77 86 87 95 98 92 86 82 72 69 70 74 73 76 75 71 68 69 75 80 91 90 76 66 66 56 47 48 50 53 58
71 76 83 89 93 97 97 92 85 84 79 77 83 85 94 85 78 76 73 72 76 94 83 72 71 70 59 53 53 53 55 57
80 77 80 91 96 98 98 98 94 91 90 94 93 90 87 91 81 81 78 72 78 89 77 74 73 72 62 52 54 57 56 56
83 83 83 92 95 94 99 98 97 96 91 93 96 93 92 89 90 87 81 79 79 90 75 73 73 72 61 56 55 56 53 61
82 89 84 90 93 95 97 93 92 96 97 97 94 92 93 92 88 90 94 88 89 85 75 76 78 74 64 56 55 55 58 64
90 90 81 87 92 93 95 94 93 92 96 98 98 94 94 96 98 95 98 97 97 84 78 77 77 73 66 60 57 54 59 67
93 91 81 79 89 93 92 92 95 89 93 98 96 96 98 97 99 97 97 99 98 90 82 79 79 74 74 69 62 58 61 68
92 83 78 79 82 87 92 92 94 94 90 88 91 95 98 98 98 99 98 99 98 94 83 80 80 80 81 77 73 69 65 68

GFSFLT1_prec_cthk_102.txt.gz
RH
29 27 25 23 22 19 17 15 17 20 22 29 34 37 45 58 60 58 52 58 47 54 54 53 50 51 50 47 47 43 38 42
27 25 23 21 20 20 20 17 16 15 17 19 25 30 34 40 63 66 56 51 51 58 60 62 57 53 52 49 49 47 41 40
26 24 23 25 25 25 23 22 21 22 22 23 27 34 32 33 45 56 61 62 56 60 61 69 63 59 57 54 52 52 47 41
29 25 24 25 26 29 30 32 28 26 29 26 26 35 40 37 35 42 46 62 62 58 65 76 73 66 63 61 56 58 52 40
30 29 28 30 31 34 38 38 38 37 35 37 34 37 44 40 41 38 43 59 63 62 68 72 77 72 67 67 62 62 57 44
32 32 32 34 36 39 43 45 47 50 50 48 42 37 45 51 55 50 47 51 58 61 57 67 92 76 70 71 65 66 62 49
36 35 35 37 40 46 51 55 57 62 62 51 45 41 44 55 58 59 52 50 56 62 66 66 68 60 62 74 69 71 64 51
38 37 37 38 43 50 61 66 63 62 56 51 47 42 45 56 63 68 65 57 60 62 60 61 59 67 70 69 65 76 58 50
38 36 39 41 45 54 69 74 65 67 64 57 51 45 47 60 71 74 73 63 59 62 61 57 64 76 80 69 69 70 59 50
39 37 38 44 47 62 72 80 76 74 66 59 57 60 65 72 69 76 79 75 65 65 65 66 74 84 74 76 77 67 58 45
43 38 40 46 52 69 79 90 83 80 74 69 72 77 69 67 72 76 77 73 64 62 64 71 81 91 95 94 82 66 58 47
46 41 42 51 57 73 82 91 87 83 81 76 75 73 70 68 69 74 80 71 63 64 71 84 89 98 95 93 79 69 53 46
42 36 43 55 63 76 82 89 92 90 86 83 79 75 73 81 81 78 84 82 77 76 78 81 85 92 92 79 81 66 48 52
38 38 46 61 65 75 84 93 93 96 90 91 91 90 88 89 89 92 89 89 83 80 81 78 77 97 92 78 77 63 57 57
45 51 54 64 71 76 81 90 97 98 95 93 96 94 95 98 91 97 97 94 86 84 83 78 80 87 80 78 79 68 60 58
58 61 63 75 76 77 85 92 96 95 94 97 94 98 90 98 95 96 98 91 85 85 81 82 82 81 76 80 79 67 62 57
68 70 77 86 76 78 90 93 96 97 97 98 98 97 96 96 95 94 94 97 95 94 91 91 84 81 78 82 78 69 59 56
76 86 89 87 81 83 91 95 96 98 98 94 95 99 98 97 94 97 99 96 94 93 93 95 90 86 83 82 75 69 63 59
85 94 90 86 83 85 91 95 97 98 98 96 95 98 98 98 99 97 98 99 98 98 98 97 98 87 82 81 77 73 69 66

GFSFLT1_prec_cthk_105.txt.gz
RH
45 38 36 31 30 27 26 26 26 28 29 27 25 32 44 51 62 63 65 64 62 57 51 49 47 55 51 50 51 52 52 51
42 38 32 31 30 24 21 19 18 17 17 18 20 22 27 36 45 57 65 70 72 69 65 60 54 54 58 56 53 54 54 52
42 34 30 29 26 25 23 22 21 20 18 18 18 20 19 31 40 39 50 55 69 79 73 71 58 58 62 65 56 58 61 58
36 31 30 30 27 26 26 27 27 28 27 25 24 23 21 21 33 38 38 44 51 74 68 82 60 59 60 69 62 59 63 60
35 31 30 30 30 28 29 31 33 36 37 35 34 32 30 26 29 47 35 37 53 53 62 88 64 62 65 74 72 67 67 59
34 33 31 32 33 31 31 34 37 41 43 43 42 39 39 41 33 49 45 42 44 49 53 65 76 72 70 79 88 78 71 64
37 35 33 33 37 36 35 37 42 44 48 50 50 51 50 52 49 52 52 47 44 51 57 61 67 78 73 70 73 87 77 67
39 36 34 35 35 35 38 38 42 47 53 55 56 58 57 54 48 48 62 57 49 52 63 58 65 80 69 63 58 95 89 76
40 37 36 33 34 37 39 40 43 52 60 62 59 60 56 48 45 43 58 63 53 63 71 63 68 79 73 77 69 77 79 80
40 40 40 37 33 38 38 42 47 59 66 69 67 65 59 53 48 45 58 63 61 70 75 70 75 78 80 73 71 79 81 82
41 42 41 39 31 37 41 45 50 64 77 76 72 67 64 63 68 56 61 66 71 76 79 71 71 78 77 72 78 87 97 86
42 40 38 34 32 39 43 46 51 65 78 81 76 73 70 80 84 82 73 78 80 84 78 77 71 71 70 71 81 95 93 83
38 35 32 36 37 41 46 47 53 68 78 85 83 79 77 76 77 82 79 76 82 84 73 70 68 68 71 79 83 86 91 82
30 33 36 41 43 46 48 48 56 67 78 87 88 83 87 83 79 78 82 86 81 88 77 75 72 71 75 80 80 91 85 88
34 39 46 49 51 52 51 52 59 70 80 86 85 89 94 95 89 88 88 87 84 88 90 84 78 82 83 82 86 92 94 85
43 46 52 56 56 56 59 57 66 78 84 89 93 97 98 97 95 98 97 95 93 93 92 91 86 84 81 79 79 88 79 78
50 53 60 62 62 62 62 65 76 85 91 95 95 97 98 96 97 98 95 97 99 94 94 91 87 82 81 78 84 81 78 79
57 61 69 70 73 70 72 76 85 92 95 97 96 96 98 97 96 95 93 99 98 98 96 93 91 84 84 86 82 79 80 81
67 72 81 82 83 83 83 86 92 96 96 97 97 96 97 98 99 99 99 94 95 96 97 98 95 93 95 93 91 86 82 84

GFSFLT1_prec_cthk_108.txt.gz
RH
45 52 49 44 41 34 32 30 30 29 28 28 28 27 30 42 52 63 65 66 63 63 54 51 46 47 47 47 52 47 44 48
52 54 52 42 35 31 28 27 25 24 23 24 25 25 26 27 28 34 45 52 51 68 67 65 58 54 58 50 54 52 48 50
59 59 51 40 34 28 26 25 22 22 22 20 18 16 15 16 17 26 33 32 44 60 63 71 77 78 68 58 54 55 55 53
64 61 49 39 35 29 27 26 25 24 25 24 24 23 21 17 14 17 24 31 32 38 42 54 76 80 95 82 77 60 57 58
66 54 45 38 34 32 31 30 27 26 26 28 29 30 30 29 28 22 22 33 39 28 26 34 48 64 81 78 95 75 67 64
62 50 41 36 33 32 31 30 29 27 29 32 34 36 37 35 34 32 30 31 48 38 29 27 33 51 59 67 73 79 73 66
54 46 39 35 32 32 32 29 30 32 36 39 42 43 41 38 38 41 36 35 43 74 63 36 34 43 49 58 61 73 76 66
53 45 44 41 36 31 29 30 33 39 40 45 46 45 44 44 42 44 47 40 52 70 84 59 48 42 50 51 61 99 88 76
48 46 41 39 34 31 29 27 35 40 41 43 48 48 49 46 52 55 50 45 52 58 90 73 51 50 55 69 66 97 80 74
53 50 48 41 38 37 34 29 37 41 42 43 48 51 56 59 64 62 54 46 41 59 71 70 52 56 61 74 70 81 79 74
51 49 46 42 38 36 32 36 38 40 41 43 45 53 61 71 71 71 60 56 47 49 62 67 60 62 66 77 75 74 68 72
56 51 48 42 40 36 36 37 38 40 42 44 44 54 66 73 75 78 78 73 74 59 77 72 64 66 74 75 81 88 95 77
57 52 43 37 35 39 40 43 41 43 45 44 44 51 69 78 76 76 83 82 85 82 80 80 76 77 75 78 78 77 75 79
48 45 42 40 40 41 45 45 45 48 47 47 50 52 64 80 82 80 81 83 88 91 95 91 87 84 85 79 73 73 69 78
47 45 46 45 46 50 47 50 51 52 52 52 56 59 68 76 84 84 85 88 87 92 91 98 84 97 79 71 70 67 77 82
45 45 46 45 50 53 56 57 55 54 58 59 62 65 77 82 89 91 86 90 92 88 91 90 90 95 89 82 75 79 83 85
50 50 51 54 53 58 60 59 59 63 62 63 68 73 86 88 90 89 91 93 92 99 94 94 98 94 92 85 87 90 86 84
57 59 59 61 61 69 69 69 67 66 66 71 76 83 91 93 94 97 96 97 98 97 97 98 97 95 96 94 95 93 91 91
65 66 68 71 71 77 79 80 82 78 77 80 87 92 95 95 96 97 97 98 98 98 98 97 98 99 97 99 93 92 93 95

GFSFLT1_prec_cthk_111.txt.gz
RH
40 40 42 40 43 44 42 37 35 32 28 26 24 25 28 37 40 47 54 62 65 72 77 63 64 60 53 51 47 49 51 52
50 45 45 47 49 50 41 34 33 29 27 25 24 22 23 24 25 32 38 46 55 61 65 71 70 61 59 60 58 55 59 62
59 56 56 55 55 50 39 34 32 28 25 24 23 22 20 20 18 19 21 27 35 40 40 50 62 68 74 68 72 76 70 70
66 61 61 61 57 50 39 36 32 28 25 23 22 22 21 20 18 17 14 15 19 28 34 41 41 46 61 76 92 95 93 89
55 56 61 63 58 44 41 38 32 29 27 24 25 26 24 23 22 20 19 19 20 25 30 38 46 47 56 63 82 91 89 83
59 59 64 61 56 42 39 37 32 29 28 29 29 29 30 27 26 26 26 26 26 25 29 36 44 52 62 52 52 60 68 68
68 62 68 66 56 38 34 31 29 27 27 30 30 30 31 33 31 30 30 30 29 29 31 41 36 51 71 59 56 57 57 58
81 74 75 66 54 41 36 32 30 26 26 29 32 34 34 38 38 34 33 31 32 31 34 44 48 53 78 95 77 72 67 71
83 77 68 51 46 44 41 40 37 32 28 28 33 35 35 40 40 40 42 43 42 41 41 44 51 54 66 73 80 81 70 63
77 69 54 47 46 43 38 32 29 29 30 31 35 36 37 39 41 46 47 49 51 50 45 42 44 49 66 82 93 79 68 67
78 67 62 60 55 50 42 36 36 36 35 35 37 38 37 37 44 47 52 54 61 60 54 50 47 59 82 89 85 77 63 60
80 74 66 60 50 46 42 40 40 39 38 38 40 41 40 40 44 50 53 57 64 67 74 72 57 70 89 88 71 64 64 76
74 64 54 50 47 44 45 45 43 43 43 42 42 43 46 44 46 48 55 61 67 69 77 83 77 81 89 88 72 65 70 88
58 52 49 47 44 44 46 48 50 51 48 45 45 50 50 49 49 49 57 62 70 73 75 76 81 86 94 86 81 80 82 78
50 47 47 48 46 49 49 51 54 51 52 51 52 53 53 54 52 55 58 64 74 79 80 79 83 91 97 98 91 90 82 85
48 46 47 49 49 49 53 53 54 57 58 58 60 60 58 55 56 60 63 74 79 84 85 89 92 95 93 91 92 97 87 86
55 55 53 51 48 51 52 56 61 64 63 67 66 66 64 62 63 66 73 80 86 89 91 91 90 90 93 93 86 94 88 86
54 54 51 52 54 58 61 62 69 69 69 71 72 72 71 69 68 75 84 88 91 93 94 96 93 93 96 90 89 90 92 91
61 55 57 63 67 70 70 74 76 80 80 81 81 80 79 79 80 85 92 94 93 93 94 95 96 98 97 93 98 95 92 96

GFSFLT1_prec_cthk_114.txt.gz
RH
38 35 34 34 34 35 38 42 41 42 40 36 33 33 37 43 44 45 49 57 64 69 72 75 81 88 83 85 70 59 54 52
55 46 39 37 39 41 41 44 45 44 38 34 31 29 29 27 30 34 40 42 47 52 59 63 65 68 74 83 81 82 81 73
68 63 54 47 44 44 44 45 49 47 37 34 33 30 26 24 24 25 25 28 36 40 39 39 44 54 60 70 78 86 81 87
77 69 63 60 55 56 53 49 50 48 38 34 32 30 27 24 23 23 22 21 20 22 28 31 30 35 40 48 55 67 79 79
75 75 71 64 63 57 57 54 56 47 36 33 32 30 26 25 23 22 20 21 20 18 16 18 21 23 27 29 39 50 57 63
89 79 72 67 62 57 57 53 51 42 34 28 28 29 27 25 24 24 24 23 25 25 23 22 22 26 29 30 29 37 48 60
82 83 79 69 63 58 57 58 56 44 38 32 30 30 28 26 25 25 26 27 28 30 29 28 27 28 32 33 33 33 42 50
87 81 78 70 65 62 65 67 58 46 31 30 34 32 32 30 27 26 28 30 34 34 34 33 28 29 29 34 41 45 44 52
91 84 77 75 71 66 62 51 41 35 37 31 28 32 33 33 33 33 32 36 37 38 35 34 34 34 32 37 47 55 58 67
93 82 81 77 71 64 58 48 41 38 37 37 34 33 34 33 36 35 35 37 38 37 36 37 41 39 39 42 51 60 65 64
96 91 82 72 67 59 57 52 48 46 49 46 45 40 34 36 38 39 38 35 37 38 40 42 43 42 48 46 50 54 58 74
82 79 77 76 68 59 51 45 42 39 39 40 42 43 42 42 40 41 39 37 36 40 42 45 50 54 64 63 60 56 73 88
71 61 57 58 60 57 51 48 44 42 43 45 47 48 45 42 42 43 41 40 41 42 46 52 54 63 69 75 77 73 83 91
72 68 59 55 53 50 49 47 45 44 47 49 50 50 47 46 45 43 42 44 47 47 50 56 61 70 71 73 88 91 88 89
68 65 58 57 56 52 50 50 48 48 51 51 54 55 54 52 52 48 48 50 52 52 56 62 67 77 79 76 83 93 92 92
62 56 53 55 55 54 53 51 53 55 55 58 59 61 60 61 57 54 54 56 56 59 66 72 77 82 82 84 90 91 88 87
49 51 52 56 55 57 57 58 59 60 60 61 64 67 72 70 65 63 63 62 62 69 75 80 88 90 93 95 93 96 95 98
57 60 63 60 59 62 65 68 67 64 66 67 69 71 70 71 72 72 71 69 73 79 80 87 93 96 96 98 98 98 98 99
62 63 65 66 67 72 76 74 73 74 73 74 73 77 79 81 81 79 79 80 83 86 86 92 95 95 97 97 96 96 97 96

GFSFLT1_prec_cthk_117.txt.gz
RH
27 31 36 41 38 36 34 33 34 35 37 38 37 38 40 41 43 47 54 58 66 75 79 80 83 83 92 97 94 84 78 88
30 39 46 48 50 47 41 40 39 38 38 39 38 39 36 38 35 35 38 43 46 51 58 67 71 73 77 84 84 80 79 99
34 40 52 66 60 56 53 49 46 44 41 43 47 45 39 35 35 34 32 31 31 31 36 43 48 51 54 63 70 73 75 75
46 50 63 82 79 71 64 59 56 53 50 50 47 46 43 37 35 33 32 30 28 27 27 27 31 38 41 42 46 52 56 61
66 64 63 75 84 78 71 63 56 52 53 52 50 46 32 33 32 29 28 28 28 27 26 24 22 22 23 29 35 37 39 46
87 86 77 70 81 84 74 67 59 55 51 50 48 47 36 30 28 27 25 25 27 28 28 25 23 21 19 17 19 25 26 27
95 93 86 77 76 78 75 68 62 55 56 56 58 42 44 32 27 26 23 22 23 27 31 32 31 28 27 25 24 24 30 32
97 97 88 91 89 81 71 69 65 61 56 54 52 49 39 40 36 28 26 22 23 25 31 34 35 35 34 33 31 29 32 37
97 95 91 85 84 79 73 74 70 65 58 50 43 42 39 45 37 36 33 32 29 27 29 35 38 36 36 37 35 32 31 36
98 96 98 94 88 81 72 71 67 59 53 48 47 47 46 46 45 40 38 41 41 35 31 32 36 39 41 40 39 36 37 37
89 89 86 89 87 75 69 67 62 54 55 52 46 47 49 47 51 51 41 39 37 38 35 29 34 38 40 41 39 38 38 38
91 87 87 79 71 79 82 76 66 64 55 50 49 42 41 39 39 43 52 44 39 36 35 35 36 36 36 42 42 43 43 45
74 75 72 71 68 56 55 51 50 51 50 49 46 42 42 40 41 42 42 45 44 40 39 39 37 37 39 42 45 47 50 57
63 62 65 63 62 57 53 53 55 53 51 49 48 46 45 45 46 46 46 44 42 43 43 42 41 40 42 46 48 50 56 64
56 54 52 49 47 54 56 58 61 61 56 54 53 53 52 49 49 51 52 50 52 51 48 47 45 47 48 50 53 57 66 74
54 48 48 51 58 60 61 62 61 58 56 61 63 62 60 59 59 58 59 59 57 56 55 54 53 53 54 56 61 67 75 82
54 53 58 61 63 63 63 66 66 66 68 68 70 66 65 69 67 67 67 66 63 61 60 59 59 58 58 63 70 80 84 89
56 61 66 66 70 72 73 72 72 70 72 73 73 72 72 71 68 70 71 71 70 68 67 66 64 63 65 66 81 90 95 98
63 69 68 72 75 81 80 77 77 78 79 77 74 74 71 70 68 67 67 68 67 71 72 69 69 68 71 74 88 96 98 98

GFSFLT1_prec_cthk_120.txt.gz
RH
23 22 25 26 30 34 39 43 46 43 42 39 37 38 38 37 38 41 44 46 47 54 68 75 78 83 86 90 93 91 96 96
31 31 31 32 34 36 42 43 48 48 49 44 42 41 39 36 36 37 38 36 40 43 50 59 65 69 76 83 87 92 95 96
39 40 41 41 40 45 46 49 54 52 52 53 49 45 42 45 42 39 37 35 35 37 37 37 40 45 54 61 68 76 80 82
45 47 49 51 50 50 52 55 62 65 66 65 60 57 54 50 52 49 39 38 39 37 36 35 34 33 32 35 44 51 54 55
54 55 56 59 60 63 67 61 67 79 71 68 62 56 54 51 50 46 38 37 39 38 36 35 34 32 29 30 30 33 41 47
62 65 70 70 73 73 72 76 77 79 74 72 65 58 54 55 53 50 39 37 33 38 35 34 33 32 30 28 26 27 26 29
69 74 83 91 92 81 84 78 85 83 81 72 68 65 62 58 55 53 42 42 34 30 35 34 32 33 32 32 30 27 26 24
75 81 90 96 98 91 80 81 83 79 79 72 70 67 62 55 50 51 46 39 44 30 30 31 31 32 32 33 32 31 30 31
81 88 90 93 94 94 87 83 85 84 79 76 75 69 59 51 46 42 42 43 42 44 30 30 30 29 30 34 33 33 34 33
87 91 89 93 88 88 87 81 81 75 71 66 70 65 58 51 44 44 41 46 46 45 52 43 34 34 34 33 37 40 40 38
85 84 83 80 81 80 78 84 81 79 68 64 63 62 62 52 46 40 43 39 41 52 48 45 43 45 46 42 41 42 46 44
69 64 63 68 70 66 72 68 69 77 83 77 72 67 60 57 48 44 41 40 42 45 53 48 43 40 39 41 45 39 40 40
68 61 55 54 53 58 66 74 65 60 62 60 59 57 56 52 48 47 45 45 43 43 45 50 55 51 43 41 40 41 42 43
68 59 53 48 47 50 56 62 69 71 61 60 58 58 57 54 54 52 50 50 49 47 47 48 47 46 45 44 42 40 44 44
70 60 54 49 50 52 53 53 57 58 64 66 63 62 61 61 62 60 56 54 54 53 52 53 53 53 51 45 46 46 47 50
67 59 50 51 55 57 61 62 61 63 64 69 68 69 70 71 75 71 67 66 62 57 57 58 58 56 53 51 50 53 56 59
64 54 54 59 61 62 66 69 71 69 68 65 64 67 70 70 70 69 70 70 68 63 62 59 59 58 58 57 57 60 61 61
58 55 58 62 61 65 68 75 74 73 73 75 74 73 70 67 63 60 57 56 54 55 59 60 61 62 64 64 66 66 66 65
55 59 65 66 70 74 79 82 82 83 80 75 72 69 64 57 50 44 39 38 40 41 40 45 51 58 62 65 69 70 71 70

GFSFLT1_prec_cthk_123.txt.gz
RH
29 30 30 31 31 33 34 35 35 36 39 44 45 47 48 45 42 41 37 38 41 42 45 48 56 67 80 87 93 93 89 94
34 33 33 34 34 35 36 37 41 44 45 45 48 49 50 49 43 39 35 32 35 37 37 37 40 48 63 75 81 88 90 93
40 39 38 38 38 38 40 40 43 45 48 52 57 56 56 50 45 42 41 40 37 37 37 35 33 34 39 44 53 66 77 86
46 45 44 43 44 44 44 46 46 47 52 53 57 64 63 59 60 50 46 45 43 40 36 35 36 35 37 39 38 39 45 57
50 50 50 50 48 51 50 52 53 58 57 57 56 61 59 68 62 56 52 53 51 44 37 34 39 41 39 39 39 38 36 38
52 54 54 56 57 59 60 67 66 66 69 69 70 64 65 69 67 61 57 59 57 55 44 35 35 41 42 40 40 41 40 37
58 58 59 60 63 65 74 81 85 76 76 85 83 86 84 69 67 62 64 60 56 59 55 41 41 38 42 44 41 41 41 40
62 62 63 64 65 66 74 81 93 89 82 79 82 85 84 80 76 72 60 56 48 49 48 42 44 44 37 39 44 38 38 39
65 64 65 64 69 69 72 76 79 77 83 88 92 92 85 83 75 68 63 52 48 43 45 45 44 47 44 38 37 40 35 38
69 66 58 57 60 59 61 69 77 78 82 78 74 71 68 66 71 65 59 54 48 44 41 43 48 50 46 47 44 37 35 38
68 61 57 54 51 52 55 63 62 68 76 80 82 77 72 66 63 68 69 59 49 40 40 41 43 50 53 52 49 45 43 42
67 62 57 54 51 47 47 51 63 70 68 64 70 80 77 75 73 74 66 61 52 47 41 42 44 47 52 56 55 52 53 50
68 64 62 58 52 46 47 49 52 57 76 75 70 69 69 67 69 68 62 58 55 52 49 48 48 49 49 57 59 57 50 48
74 71 66 59 54 50 53 56 56 58 57 64 79 81 72 66 65 65 64 63 61 58 54 53 51 52 54 54 55 60 63 56
79 77 69 61 54 53 55 58 61 63 62 61 62 69 74 71 72 71 70 69 67 64 57 56 59 59 59 58 57 59 58 57
85 80 69 59 53 56 59 61 64 67 69 67 65 64 64 62 65 65 66 68 66 65 63 61 60 60 62 64 64 63 60 60
86 78 64 55 56 61 60 65 68 69 71 71 71 73 71 63 59 54 53 51 47 46 50 57 60 60 63 63 63 65 63 63
86 72 60 59 63 61 64 69 74 74 71 68 64 63 61 58 52 44 38 34 32 30 28 31 35 45 52 60 65 62 62 62
80 64 61 64 66 70 77 82 83 81 75 73 67 60 52 44 43 39 33 29 26 25 27 27 27 28 28 30 37 50 56 61

GFSFLT1_prec_cthk_126.txt.gz
RH
33 34 34 34 34 33 33 33 32 32 34 39 43 44 46 47 48 47 47 47 46 46 45 43 43 45 47 52 65 73 85 92
37 37 38 38 37 38 39 39 39 40 37 40 45 50 54 53 51 50 49 46 40 37 37 37 36 36 40 44 48 57 67 77
40 39 39 39 38 38 37 36 37 38 42 47 45 48 51 54 57 57 55 52 46 42 39 37 36 36 34 31 34 42 47 57
40 39 41 42 41 40 39 38 39 42 45 46 53 50 51 53 55 58 61 58 54 49 44 42 42 41 36 34 33 32 40 43
43 43 45 48 46 45 46 46 48 47 48 49 51 50 63 52 56 58 61 61 58 50 50 49 49 45 39 36 36 35 35 37
46 47 48 49 50 51 52 56 54 54 59 63 62 63 68 74 62 62 62 55 57 60 60 61 60 54 48 41 37 38 39 39
50 51 53 54 54 54 54 57 59 62 65 75 78 76 70 76 74 74 70 70 68 66 62 64 59 56 55 47 48 43 42 48
53 54 56 54 52 52 54 56 58 62 67 75 81 84 82 83 83 91 89 83 79 77 69 56 52 45 46 50 48 45 42 44
58 57 53 51 47 44 45 47 54 58 65 67 67 66 71 80 85 87 90 92 90 79 59 53 42 43 49 52 52 50 46 44
59 55 50 47 47 45 41 40 41 48 57 68 69 73 78 79 79 70 69 88 89 67 55 55 53 46 42 43 47 52 53 51
62 55 53 52 51 47 43 42 42 44 49 55 57 68 73 77 82 75 74 73 75 69 68 61 47 44 40 42 45 47 56 55
66 59 56 54 53 50 47 44 46 48 49 50 65 68 60 63 77 80 79 81 81 81 75 65 59 50 49 47 46 49 57 59
71 66 61 58 56 53 51 49 50 51 53 52 53 66 75 75 74 80 77 77 81 79 69 62 56 52 52 52 51 52 54 60
78 73 68 65 62 59 55 53 53 55 57 58 59 60 65 84 85 83 82 83 79 71 65 63 63 60 58 57 56 57 58 59
81 77 74 74 69 64 55 56 57 58 59 61 61 61 62 60 68 76 74 73 69 67 66 63 62 61 58 59 61 63 63 64
83 83 82 79 72 62 57 57 59 61 64 68 68 66 63 60 60 58 58 56 55 54 54 55 54 51 54 59 62 64 63 64
90 89 86 80 71 61 59 63 64 62 64 65 65 63 59 57 54 49 47 44 40 38 36 35 34 30 32 35 45 55 62 65
95 91 89 81 68 61 65 64 65 66 66 64 61 57 54 52 46 40 35 31 28 26 25 27 25 25 24 24 24 27 33 40
94 90 89 75 64 65 65 71 78 76 71 66 60 56 48 42 39 39 36 30 27 25 22 22 20 21 24 22 22 23 23 24

GFSFLT1_prec_cthk_129.txt.gz
RH
33 33 33 33 32 31 30 29 29 30 31 33 36 42 47 48 50 51 49 47 48 51 50 47 45 44 42 44 47 46 49 53
35 36 35 34 33 34 33 31 30 30 30 33 38 40 42 50 53 52 52 52 54 54 50 48 40 35 34 37 42 42 40 45
35 36 36 36 35 35 35 35 33 33 34 36 37 39 44 43 49 54 51 51 54 56 51 44 39 38 36 34 35 34 33 36
35 37 38 39 39 40 40 39 39 39 38 40 40 43 43 47 46 43 51 55 52 51 53 50 47 45 43 40 40 41 35 31
37 40 40 40 40 41 41 42 43 44 43 45 45 47 48 50 52 49 52 48 56 55 56 55 52 48 45 44 49 50 45 34
41 40 41 42 42 42 42 43 43 44 45 47 50 54 59 58 59 64 71 68 59 55 62 62 58 53 51 53 58 54 51 46
42 43 44 44 43 42 40 40 40 42 46 49 51 56 64 70 71 74 77 81 78 67 66 64 64 65 59 63 62 58 57 54
46 47 47 43 39 36 34 34 34 36 40 46 51 53 55 63 74 81 82 82 84 82 84 82 76 75 74 72 65 52 51 54
49 49 47 42 40 37 38 37 36 36 35 35 43 51 60 65 66 67 69 72 76 80 88 91 87 84 80 69 55 50 49 49
52 51 46 42 40 41 40 40 39 38 38 38 37 42 50 55 65 76 82 82 76 78 82 92 93 81 68 54 55 49 45 48
57 56 48 46 46 45 42 42 41 41 41 41 42 43 46 53 62 63 70 83 84 82 79 86 83 70 63 60 50 50 46 44
63 61 56 54 52 51 49 48 46 46 46 47 48 49 51 51 55 69 71 75 82 86 86 85 84 75 71 62 59 56 52 49
66 65 63 65 62 58 55 53 53 51 51 53 53 54 56 57 59 64 83 83 78 80 80 80 85 84 78 72 66 59 55 54
65 66 70 69 69 66 64 61 56 54 56 55 56 58 60 59 58 62 68 89 91 89 86 82 81 76 72 68 64 62 62 62
68 71 76 79 73 70 69 66 59 57 59 60 59 60 61 60 60 60 61 67 79 81 76 69 63 60 60 63 65 65 64 64
74 76 82 82 79 76 74 69 61 61 62 62 62 63 61 60 59 57 56 51 49 51 53 49 43 34 32 34 43 45 50 60
72 77 81 82 82 82 80 71 64 65 64 63 61 59 57 54 51 50 48 53 47 43 41 37 31 27 24 22 27 26 24 25
72 82 84 83 87 85 81 68 67 67 66 62 59 54 50 46 47 47 45 42 41 37 36 35 25 20 18 19 22 24 24 22
78 91 91 90 89 86 78 70 70 64 65 63 57 56 52 53 50 42 43 43 39 35 31 28 25 21 21 20 28 24 19 16

GFSFLT1_prec_cthk_132.txt.gz
RH
31 30 29 29 29 29 29 28 27 26 27 28 31 32 34 35 39 43 46 51 55 53 54 51 49 49 45 44 43 41 38 36
33 33 32 31 30 30 30 30 29 28 28 28 28 30 34 35 36 36 45 46 44 51 49 50 49 51 53 48 40 34 33 35
36 35 36 34 31 32 32 32 32 30 30 32 33 33 35 35 36 36 37 39 42 43 44 46 46 47 48 47 40 36 35 35
36 36 35 34 34 34 34 33 33 33 34 35 34 35 37 37 38 38 41 40 39 41 43 42 44 46 47 48 43 37 36 39
36 36 36 36 35 35 34 33 32 32 34 35 36 39 41 42 42 43 45 45 44 43 44 47 48 50 50 53 49 45 43 44
37 36 36 36 36 35 33 32 30 32 33 33 35 39 42 44 47 51 51 50 52 52 57 56 52 54 56 53 54 52 49 50
38 38 38 37 35 33 30 28 28 27 28 28 28 31 37 42 42 44 50 56 63 65 69 70 74 73 72 68 63 57 55 58
40 41 40 37 33 30 30 31 31 30 29 29 29 30 32 35 40 45 50 53 59 64 71 70 74 81 79 75 73 71 70 66
42 42 41 35 34 31 31 34 34 31 32 33 33 34 36 36 36 38 45 50 59 70 69 70 69 73 77 80 81 76 77 74
42 43 42 38 36 34 34 36 37 35 35 36 37 38 38 38 39 39 41 48 54 58 77 82 78 78 80 86 87 85 83 79
44 46 46 42 41 40 39 41 42 42 41 42 42 43 44 44 45 47 46 48 55 67 68 83 84 87 90 91 85 77 76 72
49 51 51 50 47 47 46 48 48 48 49 48 46 47 48 50 53 53 56 58 60 66 82 86 86 88 91 91 86 80 74 70
55 54 53 53 52 53 56 57 58 55 54 54 52 51 51 53 55 56 59 64 67 70 77 91 86 86 88 89 85 80 76 72
56 53 52 54 58 58 63 65 65 64 60 56 54 54 52 53 57 58 57 60 65 72 72 75 79 77 80 80 81 81 82 76
64 57 54 58 64 66 70 70 72 68 63 60 61 59 58 57 57 56 52 52 55 61 60 54 53 54 51 51 51 55 54 58
69 59 57 61 67 69 74 76 76 70 66 67 65 64 59 58 56 52 48 45 42 45 46 36 31 33 38 43 40 35 28 25
69 62 58 62 72 73 79 78 73 72 69 66 66 59 58 51 50 51 47 47 45 37 38 28 24 24 28 34 36 35 25 18
63 57 60 66 76 81 84 82 77 78 71 68 59 51 47 45 49 48 48 44 38 37 39 33 25 22 22 25 28 25 22 18
60 57 61 69 77 86 95 88 81 74 70 63 51 48 53 50 49 51 49 43 39 34 30 29 26 24 21 23 28 25 26 22

GFSFLT1_prec_cthk_135.txt.gz
RH
32 28 25 26 27 27 25 24 24 24 24 24 25 25 26 27 27 29 29 31 34 37 51 50 65 51 52 52 51 49 45 39
34 28 27 28 28 27 26 25 25 25 24 25 26 28 27 26 26 26 27 30 32 34 38 44 43 45 55 45 47 46 45 37
34 29 29 29 28 29 28 28 28 27 26 26 28 29 29 29 28 28 27 27 29 31 34 36 36 38 40 42 45 46 45 42
36 32 32 30 31 31 31 29 27 26 26 26 28 29 30 30 30 31 32 33 34 34 34 35 36 35 36 38 43 46 49 48
38 33 33 33 33 32 30 27 23 21 21 21 22 24 26 28 30 33 35 37 40 44 43 44 45 45 41 40 39 44 47 50
37 35 34 34 34 32 30 26 22 19 17 17 18 18 20 21 23 25 29 33 35 38 42 50 53 54 54 54 51 52 53 54
41 37 35 35 34 31 28 26 23 21 21 20 19 20 21 21 22 24 26 29 32 35 39 43 46 51 60 67 69 68 68 66
43 39 36 36 35 30 30 28 26 24 23 22 22 23 24 26 27 27 28 29 31 34 37 42 48 53 53 63 72 71 75 79
43 43 42 39 35 30 30 29 28 27 27 28 29 29 31 32 34 35 36 35 34 34 36 40 42 55 64 67 70 76 77 82
49 49 47 42 38 32 32 32 32 32 34 35 34 34 35 37 41 42 41 42 42 41 42 44 49 56 67 77 83 87 83 81
53 52 51 48 44 38 37 37 38 38 40 40 40 40 41 41 45 47 48 48 47 49 51 53 58 67 72 78 90 95 92 90
60 58 56 53 49 44 43 41 43 45 47 48 46 47 48 49 48 49 51 53 53 55 59 61 63 72 79 90 95 97 96 97
65 59 54 54 53 50 47 47 50 53 55 55 51 52 54 54 52 51 51 52 56 58 62 62 65 73 77 91 95 97 95 93
71 67 61 59 55 52 52 54 57 59 63 59 58 56 56 54 54 54 54 52 53 55 58 57 60 62 59 63 68 72 72 79
83 77 70 66 58 57 58 60 63 62 65 63 63 61 56 55 55 52 49 46 46 41 45 41 38 36 43 48 47 45 41 41
85 85 78 71 62 60 63 66 67 65 68 66 66 63 62 58 56 50 47 42 43 41 39 34 29 28 30 34 41 39 34 31
82 81 80 74 63 63 64 64 64 67 71 70 67 64 57 56 49 43 41 42 43 46 37 33 32 30 31 30 27 25 25 27
78 78 79 75 67 66 61 63 64 69 72 80 64 60 54 44 37 46 45 44 41 41 40 35 27 26 32 28 25 22 20 19
80 80 79 71 64 60 59 60 67 72 70 67 62 57 47 41 44 46 46 48 44 39 31 28 26 25 25 27 26 25 21 17